EW1714 Weather Reports


Display with metric or nautical units.
time (UTC)temp
F
wind
direction
speed
MPH
gust
MPH
rain 1hr
in
rain 24hr
in
rain mn
in
humidity
%
barometer
mb
20210418090112 36 323 0.0 0.0 0.00 0.00 0.00 89 1008.0
20210418084620 37 323 0.0 0.0 0.00 0.00 0.00 89 1007.9
20210418083036 37 323 0.0 0.0 0.00 0.00 0.00 88 1008.0
20210418081551 38 323 0.0 0.0 0.00 0.00 0.00 88 1008.0
20210418080145 38 323 0.0 0.0 0.00 0.00 0.00 88 1007.9
20210418074549 39 323 0.0 0.0 0.00 0.00 0.00 87 1007.9
20210418073041 40 323 0.0 0.0 0.00 0.00 0.00 86 1007.8
20210418071535 40 323 0.0 0.0 0.00 0.00 0.00 86 1007.7
20210418070212 41 323 0.0 0.0 0.00 0.00 0.00 86 1007.6
20210418064640 41 323 0.0 0.0 0.00 0.00 0.00 85 1007.5
20210418063217 41 323 0.0 0.0 0.00 0.00 0.00 85 1007.5
20210418061715 41 323 0.0 0.0 0.00 0.00 0.00 85 1007.6
20210418060230 42 323 0.0 0.0 0.00 0.00 0.00 85 1007.7
20210418054641 42 323 0.0 0.0 0.00 0.00 0.00 84 1007.8
20210418053132 42 323 0.0 0.0 0.00 0.00 0.00 83 1008.0
20210418051656 42 323 0.0 0.0 0.00 0.00 0.00 82 1008.1
20210418050121 43 323 0.0 0.0 0.00 0.00 0.00 82 1008.1
20210418044720 43 323 0.0 0.0 0.00 0.00 0.00 81 1008.1
20210418043221 43 319 0.0 0.0 0.00 0.00 0.00 81 1008.2
20210418041644 43 319 0.0 0.0 0.00 0.00 0.00 80 1008.2
20210418040311 43 5 0.0 0.0 0.00 0.00 0.00 80 1008.3
20210418034622 43 5 0.0 0.0 0.00 0.00 0.00 81 1008.3
20210418033125 43 5 0.0 0.0 0.00 0.00 0.00 82 1008.3
20210418031629 43 5 0.0 0.0 0.00 0.00 0.00 81 1008.4
20210418030250 43 5 0.0 0.0 0.00 0.00 0.00 81 1008.4
20210418024629 43 5 0.0 0.0 0.00 0.00 0.00 82 1008.5
20210418023058 44 25 0.0 0.0 0.00 0.00 0.00 84 1008.5
20210418021611 44 25 0.0 0.0 0.00 0.00 0.00 85 1008.6
20210418020040 44 25 0.0 0.0 0.00 0.00 0.00 84 1008.6
20210418014543 44 25 0.0 0.0 0.00 0.00 0.00 83 1008.6
20210418013306 44 25 0.0 0.0 0.00 0.00 0.00 82 1008.6
20210418011640 44 25 0.0 0.0 0.00 0.00 0.00 82 1008.6
20210418010039 44 25 0.0 0.0 0.00 0.00 0.00 81 1008.6
20210418004547 45 25 0.0 0.0 0.00 0.00 0.00 82 1008.6
20210418003028 45 25 0.0 0.0 0.00 0.00 0.00 83 1008.5
20210418001534 45 25 0.0 0.0 0.00 0.00 0.00 82 1008.3
20210418000045 45 25 0.0 0.0 0.00 0.00 0.00 81 1008.2
20210417234516 46 25 0.0 0.0 0.00 0.00 0.00 80 1008.1
20210417233032 46 25 0.0 0.0 0.00 0.00 0.00 78 1008.0
20210417231515 46 25 0.0 0.0 0.00 0.00 0.00 76 1007.8
20210417230200 47 26 0.0 0.0 0.00 0.01 0.00 77 1007.8
20210417224623 47 26 0.0 0.0 0.00 0.01 0.00 74 1007.7
20210417223111 48 9 0.0 3.0 0.00 0.01 0.00 72 1007.7
20210417221701 48 355 0.0 0.0 0.00 0.01 0.00 75 1007.6
20210417220119 48 343 0.0 0.0 0.00 0.01 0.00 76 1007.5
20210417214558 47 360 1.0 5.0 0.00 0.01 0.00 77 1007.5
20210417213122 47 342 0.0 7.0 0.00 0.01 0.00 77 1007.3
20210417211615 47 5 0.0 7.0 0.00 0.01 0.00 77 1007.3
20210417210035 47 34 4.0 7.0 0.00 0.01 0.00 77 1007.3
20210417204540 47 331 0.0 0.0 0.00 0.01 0.00 75 1007.2
20210417203114 48 332 9.0 14.0 0.00 0.01 0.00 70 1007.1
20210417201517 48 360 4.0 10.0 0.00 0.01 0.00 70 1006.8
20210417200029 48 360 4.0 9.0 0.00 0.02 0.00 70 1006.8
20210417194516 49 5 4.0 12.0 0.00 0.02 0.00 72 1006.8
20210417193031 49 333 3.0 10.0 0.00 0.02 0.00 71 1006.7
20210417191522 48 334 6.0 10.0 0.00 0.02 0.00 71 1006.6
20210417190030 48 355 0.0 6.0 0.00 0.03 0.00 73 1006.7
20210417184544 49 349 2.0 7.0 0.00 0.03 0.00 69 1006.6
20210417183141 49 28 1.0 8.0 0.00 0.03 0.00 71 1006.5
20210417181642 48 339 2.0 9.0 0.00 0.03 0.00 73 1006.5
20210417180225 48 37 3.0 8.0 0.00 0.06 0.00 71 1006.6
20210417174709 48 13 4.0 7.0 0.00 0.06 0.00 70 1006.6
20210417173059 47 33 1.0 8.0 0.00 0.06 0.00 74 1006.6
20210417171629 46 347 2.0 7.0 0.00 0.06 0.00 73 1006.6
20210417170131 45 5 3.0 9.0 0.00 0.10 0.00 75 1006.7
20210417164615 45 19 3.0 9.0 0.00 0.10 0.00 73 1006.8
20210417163048 44 338 0.0 9.0 0.00 0.10 0.00 76 1006.8
20210417161522 44 15 4.0 13.0 0.00 0.10 0.00 75 1006.8
20210417160216 44 350 3.0 7.0 0.00 0.14 0.00 77 1006.8
20210417154712 43 338 1.0 8.0 0.00 0.14 0.00 79 1006.8
20210417153120 42 5 1.0 6.0 0.00 0.14 0.00 82 1006.8
20210417151712 42 350 0.0 9.0 0.00 0.14 0.00 86 1006.8
20210417150133 41 13 0.0 7.0 0.00 0.15 0.14 86 1006.8
20210417144616 41 17 3.0 8.0 0.00 0.15 0.14 85 1006.7
20210417143115 41 14 4.0 9.0 0.00 0.15 0.14 85 1006.8
20210417141624 41 17 5.0 9.0 0.00 0.15 0.14 83 1006.7
20210417140100 40 5 3.0 7.0 0.00 0.15 0.14 84 1006.7
20210417134541 40 328 2.0 7.0 0.00 0.15 0.14 86 1006.6
20210417133102 40 346 2.0 7.0 0.00 0.15 0.14 88 1006.5
20210417131557 40 34 4.0 10.0 0.00 0.15 0.14 88 1006.4
20210417130053 40 339 2.0 6.0 0.00 0.16 0.14 90 1006.4
20210417124616 39 13 0.0 6.0 0.00 0.16 0.14 90 1006.3
20210417123110 39 346 2.0 7.0 0.00 0.16 0.14 90 1006.4
20210417121528 39 14 3.0 10.0 0.00 0.16 0.14 90 1006.2
20210417114534 39 350 3.0 11.0 0.00 0.16 0.14 89 1006.1
20210417113106 39 336 2.0 9.0 0.00 0.16 0.14 89 1006.0
20210417111927 39 341 4.0 9.0 0.00 0.16 0.14 88 1005.8
20210417110154 39 29 1.0 9.0 0.00 0.17 0.14 88 1005.6
20210417104635 39 5 3.0 9.0 0.00 0.17 0.14 89 1005.6
20210417103230 39 5 2.0 6.0 0.00 0.17 0.14 90 1005.4
20210417101658 38 350 0.0 6.0 0.00 0.17 0.14 90 1005.1
20210417100135 38 26 2.0 6.0 0.00 0.17 0.14 90 1005.0
20210417094611 38 26 2.0 6.0 0.00 0.17 0.14 90 1004.9
20210417093105 38 346 1.0 7.0 0.00 0.17 0.14 90 1004.8
20210417091604 38 360 0.0 7.0 0.00 0.17 0.14 90 1004.6